Voltar ao catálogo

STARLINK-2500

AtivoComunicaçõesVLEO
NORAD 48485·PAYLOAD·🇺🇸 United States

Lançado May 9, 2021 de Cape Canaveral Space Force Station

Loading…

Próximas Passagens (próximas 24 horas)

TLE

AtualizadoSource: CelesTrak SupGP

Época: Sep 14, 2026, 22:00 UTC

1 48485C 21040BK  26257.91715278  .00011005  00000+0  35386-3 0  2579
2 48485  53.1586  33.1102 0001218  87.6084  96.7995 15.31698407    14

Acompanhe STARLINK-2500 em tempo real com AllMySat

Download on the App Store